Change the Weather History Date:

Monday, May 13, 2013

  Actual Average Record
Temperature  
Mean Temperature 53 °F 60 °F  
Max Temperature 71 °F 71 °F 91 °F (1956)
Min Temperature 34 °F 50 °F 33 °F (1953)
Degree Days  
Heating Degree Days 12 6  
Month to date heating degree days 128 100  
Since 1 July heating degree days 6391 6293  
Cooling Degree Days 0 1  
Month to date cooling degree days 0 10  
Year to date cooling degree days 10 14  
Growing Degree Days 2 (Base 50)    
Moisture  
Dew Point 36 °F    
Average Humidity 59    
Maximum Humidity 89    
Minimum Humidity 28    
Precipitation  
Precipitation 0.00 in 0.14 in 1.72 in (1978)
Month to date precipitation 3.91 1.83  
Year to date precipitation 17.24 9.71  
Sea Level Pressure  
Sea Level Pressure 30.09 in    
Wind  
Wind Speed 6 mph (South)    
Max Wind Speed 18 mph    
Max Gust Speed 24 mph    
Visibility 10 miles    
Events      
T = Trace of Precipitation, MM = Missing Value Source: NWS Daily Summary

Daily Weather History Graph

Daily Weather History Graph

Search for Another Location

Airport or City:

Trip Planner

Search our weather history database for the weather conditions in past years. The results will help you decide how hot, cold, wet, or windy it might be!

Date:

Astronomy

May. 13, 2013 Rise Set
Actual Time 5:48 AM CDT 8:17 PM CDT
Civil Twilight 5:16 AM CDT 8:48 PM CDT
Nautical Twilight 4:37 AM CDT 9:28 PM CDT
Astronomical Twilight 3:54 AM CDT 10:12 PM CDT
Moon 8:34 AM CDT (5/13) 11:26 PM CDT (5/13)
Length of Visible Light 15h 31m
Length of Day
14h 28m
Waxing Crescent, 12% of the Moon is Illuminated
May 13
Waxing Crescent
May 17
First Quarter
May 24
Full
May 31
Last Quarter
Jun 8
New

Hourly Weather History & Observations

Time (CDT) Temp. Windchill Dew Point Humidity Pressure Visibility Wind Dir Wind Speed Gust Speed Precip Events Conditions
12:52 AM 39.0 °F - 32.0 °F 76% 30.16 in 10.0 mi Calm Calm - N/A   Clear
1:52 AM 37.9 °F - 32.0 °F 79% 30.16 in 10.0 mi Calm Calm - N/A   Clear
2:52 AM 36.0 °F - 30.9 °F 82% 30.16 in 10.0 mi Calm Calm - N/A   Clear
3:52 AM 35.1 °F - 30.9 °F 85% 30.16 in 10.0 mi Calm Calm - N/A   Clear
4:52 AM 35.1 °F 31.0 °F 30.9 °F 85% 30.15 in 10.0 mi SW 4.6 mph - N/A   Clear
5:52 AM 34.0 °F - 30.0 °F 85% 30.16 in 10.0 mi Calm Calm - N/A   Clear
6:52 AM 37.0 °F - 30.0 °F 76% 30.18 in 10.0 mi Calm Calm - N/A   Clear
7:52 AM 45.0 °F - 35.1 °F 68% 30.18 in 10.0 mi Calm Calm - N/A   Clear
8:52 AM 53.1 °F - 37.9 °F 57% 30.19 in 10.0 mi Calm Calm - N/A   Clear
9:52 AM 57.9 °F - 33.1 °F 39% 30.18 in 10.0 mi West 4.6 mph - N/A   Clear
10:52 AM 61.0 °F - 30.9 °F 32% 30.17 in 10.0 mi SW 5.8 mph - N/A   Clear
11:52 AM 64.0 °F - 33.1 °F 31% 30.15 in 10.0 mi Variable 4.6 mph - N/A   Clear
12:52 PM 66.0 °F - 32.0 °F 28% 30.13 in 10.0 mi South 6.9 mph - N/A   Clear
1:52 PM 66.0 °F - 33.1 °F 29% 30.10 in 10.0 mi SSW 6.9 mph - N/A   Clear
3:52 PM 69.1 °F - 37.9 °F 32% 30.04 in 10.0 mi South 10.4 mph - N/A   Overcast
4:52 PM 70.0 °F - 39.9 °F 33% 30.00 in 10.0 mi South 12.7 mph - N/A   Mostly Cloudy
5:52 PM 70.0 °F - 41.0 °F 35% 29.99 in 10.0 mi South 11.5 mph 24.2 mph N/A   Clear
7:52 PM 66.9 °F - 43.0 °F 42% 29.96 in 10.0 mi South 9.2 mph - N/A   Scattered Clouds
8:52 PM 62.1 °F - 44.1 °F 52% 29.96 in 10.0 mi SSE 6.9 mph - N/A   Clear
9:52 PM 57.9 °F - 45.0 °F 62% 29.96 in 10.0 mi SE 5.8 mph - N/A   Clear
10:52 PM 60.1 °F - 43.0 °F 53% 29.94 in 10.0 mi SSE 9.2 mph - N/A   Clear
11:52 PM 61.0 °F - 43.0 °F 52% 29.91 in 10.0 mi South 12.7 mph - N/A   Clear